Santa Fe, NM

5:45 AM MDT on September 17, 2019 (GMT -0600)
Santa Fe Municipal

Weather History for KSAF - August, 2019

Change the Weather History Date:

Monday, August 26, 2019

  Actual Average Record
Temperature  
Mean Temperature 76 °F -  
Max Temperature 98 °F 84 °F 93 °F (2002)
Min Temperature 55 °F 56 °F 46 °F (2001)
Cooling Degree Days 10    
Growing Degree Days 26 (Base 50)    
Moisture  
Dew Point 34 °F    
Average Humidity 23    
Maximum Humidity 45    
Minimum Humidity 10    
Precipitation  
Precipitation 0.00 in - - ()
Sea Level Pressure  
Sea Level Pressure 29.75 in    
Wind  
Wind Speed 5 mph ()    
Max Wind Speed 16 mph    
Max Gust Speed 22 mph    
Visibility 10.0 miles    
Events      
Averages and records for this station are not official NWS values.
T = Trace of Precipitation, MM = Missing Value Source: Averaged Metar Reports

Daily Weather History Graph

Daily Weather History Graph

Search for Another Location

Airport or City:

Astronomy

Aug. 26, 2019 Rise Set
Actual Time 6:31 AM MDT 7:39 PM MDT
Civil Twilight 6:05 AM MDT 8:06 PM MDT
Nautical Twilight 5:34 AM MDT 8:37 PM MDT
Astronomical Twilight 5:01 AM MDT 9:10 PM MDT
Moon 2:06 AM MDT (8/26) 4:58 PM MDT (8/26)
Length of Visible Light 14h 00m
Length of Day
13h 08m
Waning Crescent, 19% of the Moon is Illuminated
Aug 26
Waning Crescent
Aug 30
New
Sep 5
First Quarter
Sep 13
Full
Sep 21
Last Quarter

Hourly Weather History & Observations

Time (MDT) Temp. Dew Point Humidity Pressure Visibility Wind Dir Wind Speed Gust Speed Precip Events Conditions
12:53 AM 66.9 °F 32.0 °F 27% 29.74 in 10.0 mi NE 5.8 mph - N/A   Clear
1:53 AM 72.0 °F 30.9 °F 22% 29.71 in 10.0 mi Calm Calm - N/A   Clear
2:53 AM 61.0 °F 34.0 °F 36% 29.74 in 10.0 mi NE 3.5 mph - N/A   Clear
3:53 AM 55.9 °F 35.1 °F 45% 29.76 in 10.0 mi East 3.5 mph - N/A   Clear
4:53 AM 57.0 °F 34.0 °F 42% 29.75 in 10.0 mi Calm Calm - N/A   Clear
5:53 AM 55.9 °F 34.0 °F 44% 29.77 in 10.0 mi North 8.1 mph - N/A   Clear
6:53 AM 55.9 °F 33.1 °F 42% 29.80 in 10.0 mi North 8.1 mph - N/A   Clear
7:53 AM 68.0 °F 34.0 °F 28% 29.80 in 10.0 mi SE 4.6 mph - N/A   Clear
8:53 AM 75.0 °F 33.1 °F 22% 29.81 in 10.0 mi West 6.9 mph - N/A   Clear
9:53 AM 81.0 °F 34.0 °F 18% 29.80 in 10.0 mi Variable 3.5 mph - N/A   Clear
10:53 AM 84.9 °F 34.0 °F 16% 29.78 in 10.0 mi Variable 5.8 mph - N/A   Clear
11:53 AM 88.0 °F 35.1 °F 15% 29.77 in 10.0 mi West 5.8 mph - N/A   Clear
12:53 PM 89.1 °F 34.0 °F 14% 29.77 in 10.0 mi Calm Calm - N/A   Clear
1:53 PM 93.0 °F 35.1 °F 13% 29.72 in 10.0 mi Variable 4.6 mph - N/A   Clear
2:53 PM 93.9 °F 34.0 °F 12% 29.72 in 10.0 mi North - - N/A   Clear
3:53 PM 95.0 °F 34.0 °F 12% 29.71 in 10.0 mi NW 6.9 mph - N/A   Clear
4:53 PM 93.9 °F 32.0 °F 11% 29.70 in 10.0 mi Variable 4.6 mph 21.9 mph N/A   Clear
5:53 PM 96.1 °F 30.0 °F 10% 29.69 in 10.0 mi West 16.1 mph 21.9 mph N/A   Clear
6:53 PM 91.9 °F 30.0 °F 11% 29.71 in 10.0 mi NW 15.0 mph - N/A   Clear
7:53 PM 84.0 °F 28.9 °F 14% 29.72 in 10.0 mi WNW 8.1 mph - N/A   Clear
8:53 PM 78.1 °F 28.9 °F 17% 29.75 in 10.0 mi North 4.6 mph - N/A   Clear
9:53 PM 73.9 °F 30.0 °F 20% 29.76 in 10.0 mi NNE 10.4 mph - N/A   Clear
10:53 PM 77.0 °F 43.0 °F 30% 29.76 in 10.0 mi ESE 13.8 mph - N/A   Clear
11:53 PM 75.9 °F 44.1 °F 32% 29.76 in 10.0 mi SE 13.8 mph - N/A   Clear